Wind_Speed
101 96 94 95 93 94 95 94 93 93 95 96 98 99 99 98 97 96 95 95 92 91 89 87 84 81 80 80 79 78 79 79 82 83 81 81 85 83 83 80 83 84 85
101 102 104 105 103 101 101 99 100 100 101 102 102 102 102 101 99 98 97 96 94 92 89 87 86 85 84 84 83 85 86 87 88 90 89 90 87 88 88 86 87 89 89
112 112 112 110 109 108 105 102 101 101 101 102 101 100 100 100 100 98 97 96 94 94 93 90 89 88 89 89 92 93 90 91 91 91 91 92 93 91 88 89 89 90 91
117 118 118 115 113 113 112 110 107 105 106 105 104 103 103 101 100 98 99 99 98 98 99 96 98 95 96 97 95 95 98 95 92 92 95 98 97 92 99 102 105 104 103
119 121 118 117 118 117 114 113 111 113 114 111 109 109 107 104 102 100 103 106 105 105 105 102 102 101 98 97 95 95 92 92 96 97 98 99 98 100 107 113 112 112 116
116 114 117 118 120 121 118 115 113 114 113 115 116 114 110 108 105 102 100 97 94 95 94 95 94 96 93 90 89 88 92 99 100 100 100 98 102 115 121 117 118 119 120
120 115 116 119 121 125 123 115 110 108 107 104 102 101 97 95 93 94 90 94 93 92 97 98 96 95 97 97 97 98 99 103 104 109 110 120 124 126 126 127 126 126 123
115 116 121 123 123 115 109 115 106 106 106 104 103 101 100 97 96 99 102 102 100 101 105 109 110 109 111 107 109 111 113 115 119 122 129 127 127 128 129 128 125 119 115
119 120 123 122 121 119 115 107 110 109 102 102 105 105 105 103 102 106 108 109 109 108 109 113 116 118 118 116 116 118 122 125 127 127 130 128 128 127 122 114 109 102 96
126 126 126 123 120 119 114 111 112 112 106 105 107 106 109 107 105 107 110 110 110 109 109 111 116 119 117 119 121 122 125 125 126 129 127 123 116 114 105 99 91 84 76
113 114 113 113 110 110 112 111 112 108 104 101 94 96 95 93 96 101 103 104 104 104 110 117 117 117 117 118 118 119 119 118 119 118 115 108 102 95 88 82 74 68 64
112 112 112 112 111 113 109 105 101 97 95 88 87 87 89 94 97 102 103 102 103 105 109 111 112 112 111 112 111 109 106 104 99 98 96 93 86 79 75 69 65 60 55
98 99 101 102 104 101 98 96 98 94 91 90 92 95 100 103 102 97 95 94 93 94 94 96 96 96 96 94 91 88 86 83 82 81 80 78 72 68 64 60 55 49 48
89 90 98 96 98 97 95 94 89 89 90 95 95 91 87 86 84 84 82 81 80 80 82 82 82 82 81 79 76 73 71 69 69 69 67 63 59 54 51 46 43 41 41
78 79 87 90 90 88 90 89 86 82 81 77 75 76 75 74 74 74 73 72 70 71 71 72 73 72 70 67 65 62 60 57 56 56 53 50 47 43 39 36 36 33 33
62 65 66 68 69 70 71 71 69 69 68 67 68 68 67 67 66 66 67 65 62 61 60 61 61 61 59 56 53 51 49 48 47 45 43 39 36 34 29 30 29 27 26
48 51 53 55 57 57 57 56 58 57 58 56 56 57 58 60 60 62 62 61 58 57 58 55 52 51 50 48 46 44 44 42 39 37 34 30 29 25 24 25 23 22 24
38 41 43 45 47 48 48 49 50 51 53 53 51 50 50 51 53 56 56 52 50 50 51 51 49 44 43 41 39 39 37 35 32 29 26 25 23 20 22 21 19 20 22
32 35 38 40 41 43 44 44 45 46 46 46 47 49 50 43 40 42 43 46 44 44 44 42 39 38 39 38 34 33 28 28 26 24 22 21 19 20 20 18 17 18 18
27 29 31 33 35 37 38 38 40 41 40 42 43 42 44 47 42 39 38 40 41 41 40 38 34 31 30 33 32 28 24 23 21 21 19 18 19 19 18 18 18 17 15
23 25 28 32 33 32 33 34 36 36 38 39 37 35 37 39 42 40 37 38 38 39 41 38 35 32 30 29 27 26 22 21 18 20 18 19 20 20 19 21 19 18 13
24 25 28 29 31 34 34 33 36 37 38 37 37 37 35 34 36 37 36 36 35 35 35 35 33 30 28 27 22 22 18 20 18 21 20 21 22 21 23 22 21 17 15
29 30 28 29 32 33 35 36 38 42 42 42 42 40 39 38 36 37 34 33 35 35 32 29 28 28 25 24 20 18 17 18 19 21 22 23 24 23 25 24 24 21 18
30 31 32 34 33 32 31 31 34 37 41 42 44 46 43 40 34 34 30 30 29 30 30 28 26 26 22 21 19 16 17 17 21 23 24 25 25 26 26 26 26 24 20
33 34 35 33 32 36 35 35 38 41 40 41 43 44 42 39 34 30 25 26 28 27 28 27 22 21 20 18 17 16 16 19 22 24 25 27 27 29 29 30 30 27 24
35 34 34 37 39 40 40 41 41 42 43 44 43 40 39 37 37 34 29 24 23 25 27 23 19 19 17 17 15 15 17 20 24 25 27 28 29 31 32 32 32 28 25
Wind_Direction
265 266 268 271 272 272 274 275 277 277 277 279 280 280 281 282 284 285 284 284 284 284 284 285 285 282 281 279 278 277 276 276 275 276 276 276 276 274 273 272 271 270 269
268 270 270 270 272 274 275 277 277 278 279 279 279 280 280 281 281 283 283 283 283 283 282 282 280 280 280 278 277 277 277 278 276 274 274 277 277 276 273 273 272 270 269
267 269 271 271 271 272 272 273 274 276 277 279 280 279 280 281 280 281 282 282 281 280 281 281 280 279 279 278 277 279 277 278 278 278 285 284 285 283 282 281 283 283 280
267 269 271 272 274 274 274 275 276 277 279 278 279 279 280 281 281 281 279 281 280 280 281 280 280 279 280 282 282 282 283 285 286 286 286 286 286 286 285 287 287 287 286
267 268 271 271 273 274 275 276 277 277 279 280 279 280 280 280 280 279 279 278 281 281 282 282 284 284 284 285 285 285 285 284 280 280 281 283 285 284 285 285 282 282 280
270 270 270 272 273 274 276 278 278 279 280 279 279 280 281 280 281 282 284 283 283 280 280 281 283 285 284 283 280 279 275 275 274 276 277 276 277 279 283 285 285 284 283
267 268 268 270 270 275 277 279 280 279 280 281 282 282 282 282 281 281 279 277 279 277 279 275 277 279 281 279 277 277 275 276 275 277 275 275 279 280 283 285 286 285 285
265 266 270 275 278 279 279 281 282 282 282 282 281 281 279 277 274 273 277 276 275 275 273 271 273 274 279 275 271 271 273 273 274 277 279 280 280 282 283 283 285 284 284
264 265 269 273 274 276 279 277 281 282 279 278 278 277 278 277 273 272 276 278 277 274 271 271 273 274 275 275 275 273 272 274 276 277 279 284 284 284 284 284 286 284 285
261 265 267 269 271 273 275 274 274 275 278 277 278 278 276 275 275 276 276 278 275 274 273 273 272 272 272 273 274 275 275 279 280 281 282 284 285 286 286 286 285 286 284
262 264 267 269 270 270 272 274 276 278 278 279 278 276 275 276 280 280 279 277 277 276 275 275 275 275 275 277 277 278 279 280 280 281 283 285 285 286 286 287 288 285 281
262 265 267 270 271 274 277 277 278 279 279 278 281 280 280 279 276 277 279 276 276 276 275 275 276 278 279 279 279 280 281 281 282 283 282 281 283 284 286 287 285 281 279
263 265 266 269 273 274 278 276 278 279 280 282 282 282 282 281 281 280 279 277 277 278 278 278 278 279 280 280 280 280 279 279 279 278 278 281 282 283 283 281 280 279 278
267 267 267 270 274 275 277 275 278 278 280 280 283 282 281 281 283 284 284 283 283 283 282 283 283 283 282 282 281 281 281 279 276 277 279 280 281 279 277 277 276 275 276
269 272 272 271 273 274 274 276 279 282 284 283 284 285 285 286 285 285 286 286 286 285 284 284 283 283 284 283 282 281 280 278 277 277 278 280 277 273 273 272 272 273 276
267 267 268 271 273 274 276 276 279 281 284 285 285 285 287 287 289 290 291 291 290 287 284 283 282 283 284 285 283 282 281 280 279 278 277 275 272 270 270 271 271 272 270
271 272 273 274 276 278 280 283 284 285 285 285 288 290 291 292 295 294 295 296 295 293 292 290 288 286 285 285 283 279 279 279 278 277 274 272 269 266 268 264 264 262 262
279 279 280 281 282 284 285 287 290 290 290 291 290 287 286 287 286 288 293 295 291 290 292 290 290 290 288 285 282 280 278 277 274 273 269 266 262 257 253 252 250 252 255
284 284 286 290 295 295 294 292 292 291 293 291 294 295 295 290 291 296 297 297 296 293 290 290 289 290 290 289 285 277 275 273 273 267 260 255 248 239 237 236 234 236 240
284 290 294 292 290 294 292 289 291 293 292 294 296 298 303 305 304 303 304 306 306 302 298 295 296 294 286 282 282 280 273 269 265 257 246 240 228 224 218 218 215 218 231
288 289 294 296 296 301 306 303 300 298 293 292 296 298 302 303 304 304 302 305 302 299 299 296 296 293 289 280 279 276 274 265 252 241 230 221 215 209 206 202 206 209 210
299 301 305 310 311 308 309 307 308 311 312 310 304 303 303 305 307 304 301 304 302 294 292 291 288 285 281 275 272 266 263 253 239 226 213 208 203 200 197 196 199 200 195
310 313 313 314 313 316 318 320 320 317 313 313 313 310 308 307 309 304 301 303 304 297 293 289 286 283 273 268 262 255 246 241 228 217 203 198 194 197 193 191 191 192 191
311 314 309 308 314 318 315 320 319 314 314 314 312 310 311 311 310 308 296 296 296 296 293 290 285 277 269 261 253 242 235 222 218 212 199 190 189 192 189 184 181 184 185
310 315 315 314 317 317 318 319 323 321 315 314 310 309 310 311 310 309 300 294 294 294 294 292 282 267 263 255 246 235 224 214 211 206 192 186 185 186 184 178 176 183 183
309 312 314 316 315 319 323 326 325 323 320 318 314 312 312 313 313 311 309 304 299 294 292 288 277 260 253 246 236 222 214 209 205 201 188 183 182 183 181 180 179 181 181
Height
10673 10678 10682 10681 10681 10682 10686 10689 10688 10684 10681 10678 10674 10670 10667 10666 10664 10661 10658 10656 10653 10650 10648 10647 10643 10641 10638 10636 10634 10633 10632 10630 10626 10624 10624 10625 10623 10621 10619 10619 10618 10617 10616
10652 10657 10657 10657 10655 10658 10660 10662 10659 10658 10657 10654 10652 10647 10643 10641 10640 10637 10633 10630 10627 10624 10622 10622 10620 10618 10615 10613 10610 10608 10608 10607 10604 10598 10599 10596 10594 10592 10589 10587 10588 10588 10587
10632 10630 10627 10632 10637 10637 10638 10637 10635 10633 10632 10629 10626 10621 10617 10614 10614 10612 10608 10605 10601 10597 10595 10595 10593 10592 10591 10588 10586 10583 10580 10579 10578 10574 10563 10562 10559 10556 10556 10554 10552 10548 10548
10609 10605 10604 10607 10611 10611 10611 10609 10609 10608 10606 10603 10600 10595 10591 10588 10586 10584 10581 10578 10574 10571 10569 10567 10566 10564 10563 10557 10557 10552 10548 10545 10542 10540 10538 10533 10527 10521 10520 10520 10517 10512 10512
10585 10582 10583 10584 10582 10583 10585 10585 10584 10580 10575 10573 10572 10568 10565 10562 10559 10556 10554 10551 10547 10542 10540 10537 10536 10533 10530 10525 10522 10518 10515 10515 10512 10509 10506 10503 10494 10494 10491 10490 10489 10487 10481
10553 10555 10555 10557 10556 10557 10555 10556 10557 10552 10546 10542 10540 10536 10535 10532 10527 10524 10523 10519 10516 10511 10510 10507 10505 10501 10500 10496 10493 10491 10490 10488 10485 10482 10479 10473 10469 10464 10459 10456 10452 10450 10449
10519 10526 10527 10528 10529 10528 10529 10531 10526 10525 10520 10516 10512 10507 10506 10503 10501 10500 10498 10496 10493 10490 10484 10480 10479 10478 10478 10473 10469 10463 10460 10457 10452 10452 10448 10438 10436 10428 10426 10417 10409 10405 10404
10501 10500 10498 10497 10496 10496 10497 10498 10499 10496 10495 10491 10486 10482 10479 10479 10477 10476 10474 10471 10470 10466 10461 10456 10454 10453 10452 10446 10442 10437 10433 10425 10418 10417 10411 10407 10402 10394 10387 10380 10374 10369 10365
10476 10478 10477 10474 10473 10475 10472 10472 10470 10468 10467 10464 10462 10457 10452 10450 10450 10449 10446 10444 10440 10436 10432 10427 10425 10423 10419 10413 10409 10406 10402 10393 10385 10382 10375 10370 10363 10356 10347 10342 10339 10335 10331
10455 10458 10455 10454 10452 10452 10452 10450 10449 10446 10441 10435 10432 10429 10424 10421 10421 10417 10412 10412 10409 10403 10398 10391 10389 10388 10384 10378 10372 10369 10363 10358 10353 10346 10337 10330 10324 10319 10312 10307 10305 10304 10299
10432 10431 10430 10428 10429 10427 10426 10425 10422 10417 10412 10407 10403 10398 10394 10390 10389 10386 10382 10379 10374 10368 10360 10356 10353 10349 10344 10340 10338 10335 10331 10327 10320 10313 10307 10300 10292 10288 10285 10281 10279 10274 10270
10410 10410 10408 10405 10402 10399 10398 10394 10392 10388 10385 10381 10376 10371 10368 10364 10359 10353 10350 10346 10340 10336 10327 10322 10318 10313 10310 10306 10303 10301 10298 10292 10290 10286 10280 10273 10269 10265 10262 10260 10258 10252 10249
10387 10386 10384 10382 10380 10376 10374 10369 10366 10364 10360 10355 10351 10349 10343 10335 10328 10319 10315 10311 10308 10304 10299 10292 10289 10286 10281 10278 10275 10273 10269 10266 10264 10259 10255 10251 10250 10247 10244 10241 10237 10234 10231
10367 10366 10364 10361 10357 10354 10352 10347 10343 10339 10337 10332 10327 10322 10313 10307 10302 10296 10292 10287 10282 10278 10271 10265 10260 10256 10253 10250 10247 10245 10243 10241 10239 10237 10234 10233 10231 10229 10227 10225 10221 10219 10217
10347 10344 10343 10340 10337 10333 10330 10326 10321 10317 10315 10310 10304 10296 10290 10286 10280 10275 10269 10265 10259 10253 10247 10242 10236 10231 10228 10226 10225 10222 10219 10218 10218 10217 10215 10215 10214 10212 10211 10209 10207 10208 10206
10329 10325 10323 10318 10317 10314 10310 10306 10300 10298 10295 10292 10287 10279 10272 10265 10260 10254 10248 10242 10237 10232 10227 10222 10217 10212 10209 10206 10204 10201 10199 10200 10200 10200 10200 10200 10199 10198 10198 10196 10198 10198 10198
10312 10308 10305 10302 10298 10296 10292 10289 10286 10282 10277 10274 10269 10262 10254 10247 10242 10235 10229 10224 10218 10213 10207 10201 10198 10195 10192 10190 10187 10185 10183 10183 10184 10186 10186 10186 10186 10187 10187 10188 10190 10191 10191
10298 10295 10292 10288 10285 10282 10279 10274 10271 10267 10262 10256 10252 10248 10242 10236 10228 10221 10214 10209 10203 10198 10192 10187 10183 10180 10177 10175 10174 10171 10170 10171 10172 10173 10173 10174 10176 10178 10180 10182 10184 10186 10186
10286 10284 10280 10276 10271 10267 10265 10263 10259 10255 10250 10243 10235 10226 10222 10221 10217 10209 10202 10194 10189 10184 10179 10175 10172 10168 10164 10161 10161 10161 10160 10160 10161 10163 10164 10166 10169 10172 10175 10178 10180 10181 10181
10275 10272 10269 10266 10263 10258 10254 10251 10246 10242 10237 10231 10226 10218 10210 10203 10199 10195 10189 10183 10177 10172 10166 10162 10159 10158 10156 10153 10151 10151 10151 10151 10152 10155 10157 10161 10164 10167 10171 10174 10176 10178 10180
10266 10263 10260 10256 10252 10248 10243 10239 10235 10231 10225 10221 10217 10211 10203 10196 10189 10184 10177 10172 10166 10162 10157 10153 10150 10149 10147 10144 10143 10143 10144 10145 10146 10149 10151 10156 10160 10164 10167 10170 10174 10177 10179
10257 10253 10249 10245 10240 10236 10232 10228 10222 10216 10211 10208 10203 10198 10192 10185 10179 10173 10166 10160 10158 10154 10150 10145 10142 10141 10139 10136 10135 10136 10138 10140 10141 10143 10146 10152 10157 10161 10164 10168 10172 10177 10179
10248 10245 10242 10237 10233 10228 10222 10217 10213 10207 10202 10195 10189 10185 10180 10175 10168 10162 10155 10150 10146 10142 10139 10136 10134 10132 10131 10129 10127 10129 10131 10135 10137 10139 10142 10148 10154 10158 10162 10167 10172 10176 10178
10241 10237 10233 10229 10224 10219 10214 10209 10204 10198 10193 10187 10180 10172 10166 10161 10156 10151 10145 10141 10136 10133 10130 10128 10126 10124 10122 10122 10121 10122 10125 10129 10133 10137 10139 10145 10150 10155 10160 10165 10170 10175 10178
10232 10227 10222 10218 10215 10209 10204 10198 10191 10186 10181 10176 10170 10163 10156 10149 10143 10140 10135 10130 10126 10122 10121 10120 10118 10117 10115 10114 10115 10118 10120 10124 10129 10133 10137 10142 10147 10153 10158 10164 10169 10174 10178
10222 10218 10212 10208 10203 10196 10190 10185 10180 10174 10169 10164 10158 10152 10146 10140 10133 10127 10123 10119 10117 10113 10112 10111 10110 10109 10107 10107 10110 10113 10116 10121 10125 10130 10135 10140 10145 10151 10156 10163 10168 10173 10179